Year,Month,Day,Hour,Minute,Value (Times are PST for temperature in C)
2017,05,26,00,00,13.90
2017,05,26,00,01,13.90
2017,05,26,00,02,13.90
2017,05,26,00,03,13.90
2017,05,26,00,04,13.90
2017,05,26,00,05,13.90
2017,05,26,00,06,13.80
2017,05,26,00,07,13.80
2017,05,26,00,08,13.80
2017,05,26,00,09,13.90
2017,05,26,00,10,13.90
2017,05,26,00,11,13.90
2017,05,26,00,12,13.90
2017,05,26,00,13,13.90
2017,05,26,00,14,14.00
2017,05,26,00,15,14.00
2017,05,26,00,16,14.10
2017,05,26,00,17,14.10
2017,05,26,00,18,14.10
2017,05,26,00,19,14.10
2017,05,26,00,20,14.20
2017,05,26,00,21,14.20
2017,05,26,00,22,14.20
2017,05,26,00,23,14.20
2017,05,26,00,24,14.30
2017,05,26,00,25,14.30
2017,05,26,00,26,14.30
2017,05,26,00,27,14.30
2017,05,26,00,28,14.40
2017,05,26,00,29,14.40
2017,05,26,00,30,14.40
2017,05,26,00,31,14.50
2017,05,26,00,32,14.50
2017,05,26,00,33,14.50
2017,05,26,00,34,14.50
2017,05,26,00,35,14.50
2017,05,26,00,36,14.60
2017,05,26,00,37,14.60
2017,05,26,00,38,14.60
2017,05,26,00,39,14.60
2017,05,26,00,40,14.50
2017,05,26,00,41,14.50
2017,05,26,00,42,14.50
2017,05,26,00,43,14.50
2017,05,26,00,44,14.40
2017,05,26,00,45,14.40
2017,05,26,00,46,14.40
2017,05,26,00,47,14.40
2017,05,26,00,48,14.30
2017,05,26,00,49,14.30
2017,05,26,00,50,14.30
2017,05,26,00,51,14.30
2017,05,26,00,52,14.30
2017,05,26,00,53,14.30
2017,05,26,00,54,14.30
2017,05,26,00,55,14.30
2017,05,26,00,56,14.40
2017,05,26,00,57,14.40
2017,05,26,00,58,14.40
2017,05,26,00,59,14.40
2017,05,26,01,00,14.30
2017,05,26,01,01,14.30
2017,05,26,01,02,14.30
2017,05,26,01,03,14.20
2017,05,26,01,04,14.20
2017,05,26,01,05,14.20
2017,05,26,01,06,14.20
2017,05,26,01,07,14.10
2017,05,26,01,08,14.10
2017,05,26,01,09,14.10
2017,05,26,01,10,14.10
2017,05,26,01,11,14.00
2017,05,26,01,12,14.00
2017,05,26,01,13,13.90
2017,05,26,01,14,13.90
2017,05,26,01,15,13.90
2017,05,26,01,16,13.80
2017,05,26,01,17,13.80
2017,05,26,01,18,13.80
2017,05,26,01,19,13.70
2017,05,26,01,20,13.70
2017,05,26,01,21,13.70
2017,05,26,01,22,13.60
2017,05,26,01,23,13.60
2017,05,26,01,24,13.50
2017,05,26,01,25,13.50
2017,05,26,01,26,13.50
2017,05,26,01,27,13.40
2017,05,26,01,28,13.40
2017,05,26,01,29,13.30
2017,05,26,01,30,13.30
2017,05,26,01,31,13.20
2017,05,26,01,32,13.20
2017,05,26,01,33,13.20
2017,05,26,01,34,13.10
2017,05,26,01,35,13.10
2017,05,26,01,36,13.00
2017,05,26,01,37,13.00
2017,05,26,01,38,13.00
2017,05,26,01,39,12.90
2017,05,26,01,40,12.90
2017,05,26,01,41,12.90
2017,05,26,01,42,12.90
2017,05,26,01,43,12.90
2017,05,26,01,44,12.90
2017,05,26,01,45,12.90
2017,05,26,01,46,12.80
2017,05,26,01,47,12.80
2017,05,26,01,48,12.80
2017,05,26,01,49,12.70
2017,05,26,01,50,12.70
2017,05,26,01,51,12.70
2017,05,26,01,52,12.60
2017,05,26,01,53,12.60
2017,05,26,01,54,12.50
2017,05,26,01,55,12.50
2017,05,26,01,56,12.40
2017,05,26,01,57,12.40
2017,05,26,01,58,12.40
2017,05,26,01,59,12.40
2017,05,26,02,00,12.40
2017,05,26,02,01,12.30
2017,05,26,02,02,12.30
2017,05,26,02,03,12.30
2017,05,26,02,04,12.30
2017,05,26,02,05,12.20
2017,05,26,02,06,12.20
2017,05,26,02,07,12.20
2017,05,26,02,08,12.20
2017,05,26,02,09,12.20
2017,05,26,02,10,12.20
2017,05,26,02,11,12.20
2017,05,26,02,12,12.20
2017,05,26,02,13,12.20
2017,05,26,02,14,12.20
2017,05,26,02,15,12.20
2017,05,26,02,16,12.10
2017,05,26,02,17,12.10
2017,05,26,02,18,12.10
2017,05,26,02,19,12.00
2017,05,26,02,20,12.00
2017,05,26,02,21,12.00
2017,05,26,02,22,12.00
2017,05,26,02,23,11.90
2017,05,26,02,24,12.00
2017,05,26,02,25,12.00
2017,05,26,02,26,12.00
2017,05,26,02,27,12.00
2017,05,26,02,28,12.00
2017,05,26,02,29,12.00
2017,05,26,02,30,12.00
2017,05,26,02,31,12.10
2017,05,26,02,32,12.10
2017,05,26,02,33,12.10
2017,05,26,02,34,12.10
2017,05,26,02,35,12.20
2017,05,26,02,36,12.20
2017,05,26,02,37,12.20
2017,05,26,02,38,12.20
2017,05,26,02,39,12.20
2017,05,26,02,40,12.20
2017,05,26,02,41,12.20
2017,05,26,02,42,12.20
2017,05,26,02,43,12.20
2017,05,26,02,44,12.20
2017,05,26,02,45,12.20
2017,05,26,02,46,12.20
2017,05,26,02,47,12.20
2017,05,26,02,48,12.20
2017,05,26,02,49,12.20
2017,05,26,02,50,12.20
2017,05,26,02,51,12.20
2017,05,26,02,52,12.30
2017,05,26,02,53,12.50
2017,05,26,02,54,12.60
2017,05,26,02,55,12.70
2017,05,26,02,56,12.80
2017,05,26,02,57,12.90
2017,05,26,02,58,12.90
2017,05,26,02,59,13.00
2017,05,26,03,00,13.10
2017,05,26,03,01,13.20
2017,05,26,03,02,13.20
2017,05,26,03,03,13.20
2017,05,26,03,04,13.20
2017,05,26,03,05,13.20
2017,05,26,03,06,13.20
2017,05,26,03,07,13.30
2017,05,26,03,08,13.30
2017,05,26,03,09,13.30
2017,05,26,03,10,13.30
2017,05,26,03,11,13.30
2017,05,26,03,12,13.40
2017,05,26,03,13,13.40
2017,05,26,03,14,13.40
2017,05,26,03,15,13.50
2017,05,26,03,16,13.50
2017,05,26,03,17,13.50
2017,05,26,03,18,13.60
2017,05,26,03,19,13.60
2017,05,26,03,20,13.70
2017,05,26,03,21,13.70
2017,05,26,03,22,13.70
2017,05,26,03,23,13.80
2017,05,26,03,24,13.80
2017,05,26,03,25,13.80
2017,05,26,03,26,13.90
2017,05,26,03,27,13.90
2017,05,26,03,28,13.90
2017,05,26,03,29,14.00
2017,05,26,03,30,14.00
2017,05,26,03,31,14.10
2017,05,26,03,32,14.10
2017,05,26,03,33,14.10
2017,05,26,03,34,14.10
2017,05,26,03,35,14.10
2017,05,26,03,36,14.00
2017,05,26,03,37,14.00
2017,05,26,03,38,14.00
2017,05,26,03,39,14.00
2017,05,26,03,40,14.10
2017,05,26,03,41,14.20
2017,05,26,03,42,14.20
2017,05,26,03,43,14.30
2017,05,26,03,44,14.40
2017,05,26,03,45,14.50
2017,05,26,03,46,14.60
2017,05,26,03,47,14.70
2017,05,26,03,48,14.70
2017,05,26,03,49,14.80
2017,05,26,03,50,14.80
2017,05,26,03,51,14.90
2017,05,26,03,52,14.90
2017,05,26,03,53,14.90
2017,05,26,03,54,14.90
2017,05,26,03,55,15.00
2017,05,26,03,56,15.00
2017,05,26,03,57,15.00
2017,05,26,03,58,15.00
2017,05,26,03,59,15.10
2017,05,26,04,00,15.10
2017,05,26,04,01,15.10
2017,05,26,04,02,15.00
2017,05,26,04,03,15.00
2017,05,26,04,04,15.00
2017,05,26,04,05,14.90
2017,05,26,04,06,14.90
2017,05,26,04,07,14.90
2017,05,26,04,08,14.80
2017,05,26,04,09,14.80
2017,05,26,04,10,14.70
2017,05,26,04,11,14.70
2017,05,26,04,12,14.60
2017,05,26,04,13,14.50
2017,05,26,04,14,14.40
2017,05,26,04,15,14.30
2017,05,26,04,16,14.30
2017,05,26,04,17,14.20
2017,05,26,04,18,14.10
2017,05,26,04,19,14.00
2017,05,26,04,20,13.90
2017,05,26,04,21,13.90
2017,05,26,04,22,13.80
2017,05,26,04,23,13.70
2017,05,26,04,24,13.70
2017,05,26,04,25,13.60
2017,05,26,04,26,13.60
2017,05,26,04,27,13.50
2017,05,26,04,28,13.50
2017,05,26,04,29,13.40
2017,05,26,04,30,13.30
2017,05,26,04,31,13.30
2017,05,26,04,32,13.30
2017,05,26,04,33,13.20
2017,05,26,04,34,13.20
2017,05,26,04,35,13.00
2017,05,26,04,36,12.90
2017,05,26,04,37,12.80
2017,05,26,04,38,12.80
2017,05,26,04,39,12.70
2017,05,26,04,40,12.70
2017,05,26,04,41,12.70
2017,05,26,04,42,12.70
2017,05,26,04,43,12.60
2017,05,26,04,44,12.60
2017,05,26,04,45,12.60
2017,05,26,04,46,12.50
2017,05,26,04,47,12.50
2017,05,26,04,48,12.50
2017,05,26,04,49,12.40
2017,05,26,04,50,12.40
2017,05,26,04,51,12.40
2017,05,26,04,52,12.40
2017,05,26,04,53,12.40
2017,05,26,04,54,12.30
2017,05,26,04,55,12.30
2017,05,26,04,56,12.30
2017,05,26,04,57,12.20
2017,05,26,04,58,12.20
2017,05,26,04,59,12.20
2017,05,26,05,00,12.10
2017,05,26,05,01,12.10
2017,05,26,05,02,12.00
2017,05,26,05,03,11.90
2017,05,26,05,04,11.70
2017,05,26,05,05,11.70
2017,05,26,05,06,11.50
2017,05,26,05,07,11.50
2017,05,26,05,08,11.40
2017,05,26,05,09,11.30
2017,05,26,05,10,11.20
2017,05,26,05,11,11.10
2017,05,26,05,12,11.00
2017,05,26,05,13,10.90
2017,05,26,05,14,10.90
2017,05,26,05,15,10.80
2017,05,26,05,16,10.80
2017,05,26,05,17,10.90
2017,05,26,05,18,10.80
2017,05,26,05,19,10.80
2017,05,26,05,20,10.80
2017,05,26,05,21,10.70
2017,05,26,05,22,10.70
2017,05,26,05,23,10.70
2017,05,26,05,24,10.60
2017,05,26,05,25,10.60
2017,05,26,05,26,10.60
2017,05,26,05,27,10.60
2017,05,26,05,28,10.60
2017,05,26,05,29,10.60
2017,05,26,05,30,10.50
2017,05,26,05,31,10.50
2017,05,26,05,32,10.50
2017,05,26,05,33,10.50
2017,05,26,05,34,10.40
2017,05,26,05,35,10.40
2017,05,26,05,36,10.50
2017,05,26,05,37,10.50
2017,05,26,05,38,10.50
2017,05,26,05,39,10.40
2017,05,26,05,40,10.40
2017,05,26,05,41,10.40
2017,05,26,05,42,10.40
2017,05,26,05,43,10.40
2017,05,26,05,44,10.40
2017,05,26,05,45,10.40
2017,05,26,05,46,10.40
2017,05,26,05,47,10.40
2017,05,26,05,48,10.40
2017,05,26,05,49,10.40
2017,05,26,05,50,10.50
2017,05,26,05,51,10.50
2017,05,26,05,52,10.50
2017,05,26,05,53,10.50
2017,05,26,05,54,10.60
2017,05,26,05,55,10.60
2017,05,26,05,56,10.60
2017,05,26,05,57,10.60
2017,05,26,05,58,10.70
2017,05,26,05,59,10.70
2017,05,26,06,00,10.70
2017,05,26,06,01,10.80
2017,05,26,06,02,10.80
2017,05,26,06,03,10.80
2017,05,26,06,04,10.80
2017,05,26,06,05,10.90
2017,05,26,06,06,10.90
2017,05,26,06,07,10.90
2017,05,26,06,08,10.90
2017,05,26,06,09,11.00
2017,05,26,06,10,11.00
2017,05,26,06,11,11.10
2017,05,26,06,12,11.10
2017,05,26,06,13,11.10
2017,05,26,06,14,11.20
2017,05,26,06,15,11.20
2017,05,26,06,16,11.20
2017,05,26,06,17,11.30
2017,05,26,06,18,11.30
2017,05,26,06,19,11.40
2017,05,26,06,20,11.40
2017,05,26,06,21,11.50
2017,05,26,06,22,11.50
2017,05,26,06,23,11.50
2017,05,26,06,24,11.60
2017,05,26,06,25,11.60
2017,05,26,06,26,11.60
2017,05,26,06,27,11.70
2017,05,26,06,28,11.70
2017,05,26,06,29,11.70
2017,05,26,06,30,11.80
2017,05,26,06,31,11.80
2017,05,26,06,32,11.90
2017,05,26,06,33,11.90
2017,05,26,06,34,12.00
2017,05,26,06,35,12.00
2017,05,26,06,36,12.10
2017,05,26,06,37,12.20
2017,05,26,06,38,12.30
2017,05,26,06,39,12.30
2017,05,26,06,40,12.40
2017,05,26,06,41,12.40
2017,05,26,06,42,12.50
2017,05,26,06,43,12.50
2017,05,26,06,44,12.60
2017,05,26,06,45,12.60
2017,05,26,06,46,12.70
2017,05,26,06,47,12.70
2017,05,26,06,48,12.80
2017,05,26,06,49,12.80
2017,05,26,06,50,12.90
2017,05,26,06,51,12.90
2017,05,26,06,52,13.00
2017,05,26,06,53,13.00
2017,05,26,06,54,13.10
2017,05,26,06,55,13.20
2017,05,26,06,56,13.30
2017,05,26,06,57,13.30
2017,05,26,06,58,13.40
2017,05,26,06,59,13.40
2017,05,26,07,00,13.40
2017,05,26,07,01,13.50
2017,05,26,07,02,13.60
2017,05,26,07,03,13.70
2017,05,26,07,04,13.90
2017,05,26,07,05,14.00
2017,05,26,07,06,14.10
2017,05,26,07,07,14.20
2017,05,26,07,08,14.30
2017,05,26,07,09,14.50
2017,05,26,07,10,14.60
2017,05,26,07,11,14.70
2017,05,26,07,12,14.80
2017,05,26,07,13,14.90
2017,05,26,07,14,15.10
2017,05,26,07,15,15.10
2017,05,26,07,16,15.20
2017,05,26,07,17,15.30
2017,05,26,07,18,15.30
2017,05,26,07,19,15.40
2017,05,26,07,20,15.50
2017,05,26,07,21,15.50
2017,05,26,07,22,15.50
2017,05,26,07,23,15.50
2017,05,26,07,24,15.50
2017,05,26,07,25,15.50
2017,05,26,07,26,15.60
2017,05,26,07,27,15.60
2017,05,26,07,28,15.70
2017,05,26,07,29,15.80
2017,05,26,07,30,15.90
2017,05,26,07,31,16.00
2017,05,26,07,32,16.10
2017,05,26,07,33,16.20
2017,05,26,07,34,16.20
2017,05,26,07,35,16.20
2017,05,26,07,36,16.20
2017,05,26,07,37,16.30
2017,05,26,07,38,16.30
2017,05,26,07,39,16.30
2017,05,26,07,40,16.30
2017,05,26,07,41,16.30
2017,05,26,07,42,16.30
2017,05,26,07,43,16.30
2017,05,26,07,44,16.30
2017,05,26,07,45,16.40
2017,05,26,07,46,16.40
2017,05,26,07,47,16.50
2017,05,26,07,48,16.60
2017,05,26,07,49,16.70
2017,05,26,07,50,16.70
2017,05,26,07,51,16.70
2017,05,26,07,52,16.60
2017,05,26,07,53,16.60
2017,05,26,07,54,16.50
2017,05,26,07,55,16.40
2017,05,26,07,56,16.30
2017,05,26,07,57,16.30
2017,05,26,07,58,16.30
2017,05,26,07,59,16.30
2017,05,26,08,00,16.30
2017,05,26,08,01,16.20
2017,05,26,08,02,16.20
2017,05,26,08,03,16.20
2017,05,26,08,04,16.20
2017,05,26,08,05,16.20
2017,05,26,08,06,16.20
2017,05,26,08,07,16.20
2017,05,26,08,08,16.30
2017,05,26,08,09,16.30
2017,05,26,08,10,16.40
2017,05,26,08,11,16.40
2017,05,26,08,12,16.40
2017,05,26,08,13,16.40
2017,05,26,08,14,16.50
2017,05,26,08,15,16.50
2017,05,26,08,16,16.50
2017,05,26,08,17,16.40
2017,05,26,08,18,16.50
2017,05,26,08,19,16.50
2017,05,26,08,20,16.60
2017,05,26,08,21,16.70
2017,05,26,08,22,16.70
2017,05,26,08,23,16.80
2017,05,26,08,24,17.00
2017,05,26,08,25,17.10
2017,05,26,08,26,17.20
2017,05,26,08,27,17.30
2017,05,26,08,28,17.30
2017,05,26,08,29,17.40
2017,05,26,08,30,17.50
2017,05,26,08,31,17.60
2017,05,26,08,32,17.60
2017,05,26,08,33,17.50
2017,05,26,08,34,17.30
2017,05,26,08,35,17.20
2017,05,26,08,36,17.00
2017,05,26,08,37,16.80
2017,05,26,08,38,16.60
2017,05,26,08,39,16.40
2017,05,26,08,40,16.30
2017,05,26,08,41,16.30
2017,05,26,08,42,16.20
2017,05,26,08,43,16.20
2017,05,26,08,44,16.20
2017,05,26,08,45,16.20
2017,05,26,08,46,16.20
2017,05,26,08,47,16.20
2017,05,26,08,48,16.30
2017,05,26,08,49,16.30
2017,05,26,08,50,16.30
2017,05,26,08,51,16.40
2017,05,26,08,52,16.40
2017,05,26,08,53,16.40
2017,05,26,08,54,16.50
2017,05,26,08,55,16.50
2017,05,26,08,56,16.60
2017,05,26,08,57,16.70
2017,05,26,08,58,16.80
2017,05,26,08,59,17.00
2017,05,26,09,00,17.00
2017,05,26,09,01,17.10
2017,05,26,09,02,17.20
2017,05,26,09,03,17.30
2017,05,26,09,04,17.40
2017,05,26,09,05,17.40
2017,05,26,09,06,17.50
2017,05,26,09,07,17.60
2017,05,26,09,08,17.70
2017,05,26,09,09,17.80
2017,05,26,09,10,18.00
2017,05,26,09,11,18.10
2017,05,26,09,12,18.20
2017,05,26,09,13,18.30
2017,05,26,09,14,18.40
2017,05,26,09,15,18.40
2017,05,26,09,16,18.40
2017,05,26,09,17,18.40
2017,05,26,09,18,18.40
2017,05,26,09,19,18.30
2017,05,26,09,20,18.30
2017,05,26,09,21,18.20
2017,05,26,09,22,18.20
2017,05,26,09,23,18.10
2017,05,26,09,24,18.10
2017,05,26,09,25,18.10
2017,05,26,09,26,18.10
2017,05,26,09,27,18.00
2017,05,26,09,28,18.00
2017,05,26,09,29,18.00
2017,05,26,09,30,18.00
2017,05,26,09,31,18.00
2017,05,26,09,32,18.00
2017,05,26,09,33,17.90
2017,05,26,09,34,17.90
2017,05,26,09,35,17.90
2017,05,26,09,36,17.90
2017,05,26,09,37,18.00
2017,05,26,09,38,18.00
2017,05,26,09,39,17.90
2017,05,26,09,40,17.90
2017,05,26,09,41,17.80
2017,05,26,09,42,17.70
2017,05,26,09,43,17.70
2017,05,26,09,44,17.70
2017,05,26,09,45,17.70
2017,05,26,09,46,17.80
2017,05,26,09,47,18.00
2017,05,26,09,48,18.10
2017,05,26,09,49,18.10
2017,05,26,09,50,18.10
2017,05,26,09,51,18.10
2017,05,26,09,52,18.00
2017,05,26,09,53,17.90
2017,05,26,09,54,17.80
2017,05,26,09,55,17.80
2017,05,26,09,56,17.80
2017,05,26,09,57,17.90
2017,05,26,09,58,17.90
2017,05,26,09,59,18.00
2017,05,26,10,00,18.00
2017,05,26,10,01,18.10
2017,05,26,10,02,18.20
2017,05,26,10,03,18.20
2017,05,26,10,04,18.20
2017,05,26,10,05,18.20
2017,05,26,10,06,18.10
2017,05,26,10,07,18.10
2017,05,26,10,08,18.10
2017,05,26,10,09,18.10
2017,05,26,10,10,18.00
2017,05,26,10,11,18.00
2017,05,26,10,12,17.90
2017,05,26,10,13,17.90
2017,05,26,10,14,17.90
2017,05,26,10,15,18.00
2017,05,26,10,16,18.10
2017,05,26,10,17,18.10
2017,05,26,10,18,18.10
2017,05,26,10,19,18.10
2017,05,26,10,20,18.10
2017,05,26,10,21,18.10
2017,05,26,10,22,18.10
2017,05,26,10,23,18.10
2017,05,26,10,24,18.00
2017,05,26,10,25,18.00
2017,05,26,10,26,18.00
2017,05,26,10,27,17.90
2017,05,26,10,28,17.90
2017,05,26,10,29,17.90
2017,05,26,10,30,17.80
2017,05,26,10,31,17.80
2017,05,26,10,32,17.90
2017,05,26,10,33,17.90
2017,05,26,10,34,18.00
2017,05,26,10,35,17.90
2017,05,26,10,36,17.90
2017,05,26,10,37,18.00
2017,05,26,10,38,18.10
2017,05,26,10,39,18.20
2017,05,26,10,40,18.20
2017,05,26,10,41,18.30
2017,05,26,10,42,18.40
2017,05,26,10,43,18.50
2017,05,26,10,44,18.40
2017,05,26,10,45,18.40
2017,05,26,10,46,18.40
2017,05,26,10,47,18.40
2017,05,26,10,48,18.30
2017,05,26,10,49,18.40
2017,05,26,10,50,18.40
2017,05,26,10,51,18.40
2017,05,26,10,52,18.30
2017,05,26,10,53,18.30
2017,05,26,10,54,18.20
2017,05,26,10,55,18.20
2017,05,26,10,56,18.20
2017,05,26,10,57,18.30
2017,05,26,10,58,18.30
2017,05,26,10,59,18.30
2017,05,26,11,00,18.40
2017,05,26,11,01,18.40
2017,05,26,11,02,18.40
2017,05,26,11,03,18.40
2017,05,26,11,04,18.40
2017,05,26,11,05,18.40
2017,05,26,11,06,18.40
2017,05,26,11,07,18.40
2017,05,26,11,08,18.30
2017,05,26,11,09,18.30
2017,05,26,11,10,18.30
2017,05,26,11,11,18.20
2017,05,26,11,12,18.20
2017,05,26,11,13,18.20
2017,05,26,11,14,18.20
2017,05,26,11,15,18.40
2017,05,26,11,16,18.50
2017,05,26,11,17,18.60
2017,05,26,11,18,18.60
2017,05,26,11,19,18.70
2017,05,26,11,20,18.60
2017,05,26,11,21,18.60
2017,05,26,11,22,18.70
2017,05,26,11,23,18.70
2017,05,26,11,24,18.70
2017,05,26,11,25,18.80
2017,05,26,11,26,18.80
2017,05,26,11,27,18.80
2017,05,26,11,28,18.90
2017,05,26,11,29,18.90
2017,05,26,11,30,19.00
2017,05,26,11,31,19.00
2017,05,26,11,32,19.00
2017,05,26,11,33,19.10
2017,05,26,11,34,19.10
2017,05,26,11,35,19.20
2017,05,26,11,36,19.20
2017,05,26,11,37,19.30
2017,05,26,11,38,19.40
2017,05,26,11,39,19.40
2017,05,26,11,40,19.40
2017,05,26,11,41,19.40
2017,05,26,11,42,19.30
2017,05,26,11,43,19.20
2017,05,26,11,44,19.00
2017,05,26,11,45,18.80
2017,05,26,11,46,18.70
2017,05,26,11,47,18.30
2017,05,26,11,48,18.10
2017,05,26,11,49,17.90
2017,05,26,11,50,17.90
2017,05,26,11,51,17.80
2017,05,26,11,52,17.80
2017,05,26,11,53,17.90
2017,05,26,11,54,17.80
2017,05,26,11,55,17.80
2017,05,26,11,56,17.80
2017,05,26,11,57,17.80
2017,05,26,11,58,17.90
2017,05,26,11,59,17.90
2017,05,26,12,00,17.90
2017,05,26,12,01,17.80
2017,05,26,12,02,17.80
2017,05,26,12,03,17.70
2017,05,26,12,04,17.60
2017,05,26,12,05,17.50
2017,05,26,12,06,17.60
2017,05,26,12,07,17.60
2017,05,26,12,08,17.60
2017,05,26,12,09,17.70
2017,05,26,12,10,17.70
2017,05,26,12,11,17.70
2017,05,26,12,12,17.70
2017,05,26,12,13,17.80
2017,05,26,12,14,17.90
2017,05,26,12,15,18.10
2017,05,26,12,16,18.20
2017,05,26,12,17,18.40
2017,05,26,12,18,18.50
2017,05,26,12,19,18.70
2017,05,26,12,20,18.80
2017,05,26,12,21,18.90
2017,05,26,12,22,18.90
2017,05,26,12,23,19.00
2017,05,26,12,24,19.10
2017,05,26,12,25,19.20
2017,05,26,12,26,19.40
2017,05,26,12,27,19.50
2017,05,26,12,28,19.50
2017,05,26,12,29,19.60
2017,05,26,12,30,19.70
2017,05,26,12,31,19.80
2017,05,26,12,32,19.90
2017,05,26,12,33,20.00
2017,05,26,12,34,20.00
2017,05,26,12,35,20.10
2017,05,26,12,36,20.00
2017,05,26,12,37,19.90
2017,05,26,12,38,19.90
2017,05,26,12,39,19.90
2017,05,26,12,40,19.90
2017,05,26,12,41,20.00
2017,05,26,12,42,20.00
2017,05,26,12,43,20.00
2017,05,26,12,44,20.10
2017,05,26,12,45,20.20
2017,05,26,12,46,20.30
2017,05,26,12,47,20.40
2017,05,26,12,48,20.50
2017,05,26,12,49,20.40
2017,05,26,12,50,20.40
2017,05,26,12,51,20.40
2017,05,26,12,52,20.20
2017,05,26,12,53,19.90
2017,05,26,12,54,19.80
2017,05,26,12,55,19.80
2017,05,26,12,56,19.90
2017,05,26,12,57,19.90
2017,05,26,12,58,20.10
2017,05,26,12,59,20.10
2017,05,26,13,00,20.20
2017,05,26,13,01,20.20
2017,05,26,13,02,20.10
2017,05,26,13,03,20.10
2017,05,26,13,04,20.10
2017,05,26,13,05,20.10
2017,05,26,13,06,20.10
2017,05,26,13,07,20.20
2017,05,26,13,08,20.10
2017,05,26,13,09,20.10
2017,05,26,13,10,20.00
2017,05,26,13,11,19.90
2017,05,26,13,12,19.90
2017,05,26,13,13,19.80
2017,05,26,13,14,19.80
2017,05,26,13,15,19.70
2017,05,26,13,16,19.70
2017,05,26,13,17,19.70
2017,05,26,13,18,19.80
2017,05,26,13,19,19.90
2017,05,26,13,20,20.00
2017,05,26,13,21,20.10
2017,05,26,13,22,20.20
2017,05,26,13,23,20.30
2017,05,26,13,24,20.30
2017,05,26,13,25,20.30
2017,05,26,13,26,20.30
2017,05,26,13,27,20.30
2017,05,26,13,28,20.30
2017,05,26,13,29,20.40
2017,05,26,13,30,20.40
2017,05,26,13,31,20.30
2017,05,26,13,32,20.10
2017,05,26,13,33,19.90
2017,05,26,13,34,19.80
2017,05,26,13,35,19.70
2017,05,26,13,36,19.60
2017,05,26,13,37,19.40
2017,05,26,13,38,19.10
2017,05,26,13,39,18.80
2017,05,26,13,40,18.60
2017,05,26,13,41,18.40
2017,05,26,13,42,18.40
2017,05,26,13,43,18.40
2017,05,26,13,44,18.40
2017,05,26,13,45,18.60
2017,05,26,13,46,18.70
2017,05,26,13,47,18.70
2017,05,26,13,48,18.70
2017,05,26,13,49,18.60
2017,05,26,13,50,18.60
2017,05,26,13,51,18.60
2017,05,26,13,52,18.70
2017,05,26,13,53,18.70
2017,05,26,13,54,18.60
2017,05,26,13,55,18.60
2017,05,26,13,56,18.60
2017,05,26,13,57,18.60
2017,05,26,13,58,18.70
2017,05,26,13,59,18.70
2017,05,26,14,00,18.70
2017,05,26,14,01,18.80
2017,05,26,14,02,18.80
2017,05,26,14,03,18.80
2017,05,26,14,04,18.90
2017,05,26,14,05,19.10
2017,05,26,14,06,19.20
2017,05,26,14,07,19.40
2017,05,26,14,08,19.60
2017,05,26,14,09,19.80
2017,05,26,14,10,19.90
2017,05,26,14,11,19.80
2017,05,26,14,12,19.70
2017,05,26,14,13,19.50
2017,05,26,14,14,19.40
2017,05,26,14,15,19.20
2017,05,26,14,16,19.20
2017,05,26,14,17,19.10
2017,05,26,14,18,19.00
2017,05,26,14,19,19.00
2017,05,26,14,20,19.00
2017,05,26,14,21,19.10
2017,05,26,14,22,19.20
2017,05,26,14,23,19.20
2017,05,26,14,24,19.20
2017,05,26,14,25,19.10
2017,05,26,14,26,19.10
2017,05,26,14,27,19.10
2017,05,26,14,28,19.10
2017,05,26,14,29,19.20
2017,05,26,14,30,19.10
2017,05,26,14,31,19.10
2017,05,26,14,32,19.00
2017,05,26,14,33,19.00
2017,05,26,14,34,19.20
2017,05,26,14,35,19.30
2017,05,26,14,36,19.50
2017,05,26,14,37,19.60
2017,05,26,14,38,19.60
2017,05,26,14,39,19.60
2017,05,26,14,40,19.70
2017,05,26,14,41,19.60
2017,05,26,14,42,19.60
2017,05,26,14,43,19.70
2017,05,26,14,44,19.70
2017,05,26,14,45,19.70
2017,05,26,14,46,19.60
2017,05,26,14,47,19.60
2017,05,26,14,48,19.50
2017,05,26,14,49,19.50
2017,05,26,14,50,19.50
2017,05,26,14,51,19.50
2017,05,26,14,52,19.60
2017,05,26,14,53,19.70
2017,05,26,14,54,19.80
2017,05,26,14,55,19.90
2017,05,26,14,56,20.00
2017,05,26,14,57,20.00
2017,05,26,14,58,20.10
2017,05,26,14,59,20.10
2017,05,26,15,00,20.20
2017,05,26,15,01,20.20
2017,05,26,15,02,20.10
2017,05,26,15,03,20.00
2017,05,26,15,04,20.00
2017,05,26,15,05,20.10
2017,05,26,15,06,20.10
2017,05,26,15,07,20.20
2017,05,26,15,08,20.30
2017,05,26,15,09,20.40
2017,05,26,15,10,20.50
2017,05,26,15,11,20.60
2017,05,26,15,12,20.60
2017,05,26,15,13,20.70
2017,05,26,15,14,20.70
2017,05,26,15,15,20.60
2017,05,26,15,16,20.70
2017,05,26,15,17,20.70
2017,05,26,15,18,20.60
2017,05,26,15,19,20.50
2017,05,26,15,20,20.40
2017,05,26,15,21,20.30
2017,05,26,15,22,20.20
2017,05,26,15,23,20.10
2017,05,26,15,24,20.00
2017,05,26,15,25,20.00
2017,05,26,15,26,19.90
2017,05,26,15,27,19.80
2017,05,26,15,28,19.70
2017,05,26,15,29,19.70
2017,05,26,15,30,19.60
2017,05,26,15,31,19.40
2017,05,26,15,32,19.40
2017,05,26,15,33,19.30
2017,05,26,15,34,19.10
2017,05,26,15,35,19.00
2017,05,26,15,36,18.90
2017,05,26,15,37,18.80
2017,05,26,15,38,18.70
2017,05,26,15,39,18.70
2017,05,26,15,40,18.70
2017,05,26,15,41,18.70
2017,05,26,15,42,18.80
2017,05,26,15,43,18.80
2017,05,26,15,44,18.90
2017,05,26,15,45,19.00
2017,05,26,15,46,19.20
2017,05,26,15,47,19.40
2017,05,26,15,48,19.60
2017,05,26,15,49,19.80
2017,05,26,15,50,19.90
2017,05,26,15,51,19.90
2017,05,26,15,52,19.80
2017,05,26,15,53,19.70
2017,05,26,15,54,19.70
2017,05,26,15,55,19.60
2017,05,26,15,56,19.60
2017,05,26,15,57,19.60
2017,05,26,15,58,19.50
2017,05,26,15,59,19.50
2017,05,26,16,00,19.50
2017,05,26,16,01,19.50
2017,05,26,16,02,19.50
2017,05,26,16,03,19.50
2017,05,26,16,04,19.50
2017,05,26,16,05,19.50
2017,05,26,16,06,19.50
2017,05,26,16,07,19.40
2017,05,26,16,08,19.40
2017,05,26,16,09,19.40
2017,05,26,16,10,19.40
2017,05,26,16,11,19.30
2017,05,26,16,12,19.30
2017,05,26,16,13,19.40
2017,05,26,16,14,19.40
2017,05,26,16,15,19.40
2017,05,26,16,16,19.30
2017,05,26,16,17,19.30
2017,05,26,16,18,19.30
2017,05,26,16,19,19.30
2017,05,26,16,20,19.40
2017,05,26,16,21,19.50
2017,05,26,16,22,19.60
2017,05,26,16,23,19.80
2017,05,26,16,24,19.80
2017,05,26,16,25,19.90
2017,05,26,16,26,19.90
2017,05,26,16,27,20.00
2017,05,26,16,28,20.00
2017,05,26,16,29,20.00
2017,05,26,16,30,19.90
2017,05,26,16,31,19.80
2017,05,26,16,32,19.80
2017,05,26,16,33,19.70
2017,05,26,16,34,19.70
2017,05,26,16,35,19.70
2017,05,26,16,36,19.70
2017,05,26,16,37,19.70
2017,05,26,16,38,19.80
2017,05,26,16,39,19.80
2017,05,26,16,40,19.80
2017,05,26,16,41,19.90
2017,05,26,16,42,19.90
2017,05,26,16,43,19.90
2017,05,26,16,44,19.90
2017,05,26,16,45,19.90
2017,05,26,16,46,19.90
2017,05,26,16,47,19.90
2017,05,26,16,48,20.00
2017,05,26,16,49,20.10
2017,05,26,16,50,20.20
2017,05,26,16,51,20.40
2017,05,26,16,52,20.50
2017,05,26,16,53,20.60
2017,05,26,16,54,20.70
2017,05,26,16,55,20.80
2017,05,26,16,56,20.90
2017,05,26,16,57,21.00
2017,05,26,16,58,21.00
2017,05,26,16,59,21.10
2017,05,26,17,00,21.10
2017,05,26,17,01,21.00
2017,05,26,17,02,21.00
2017,05,26,17,03,21.00
2017,05,26,17,04,21.10
2017,05,26,17,05,21.10
2017,05,26,17,06,21.20
2017,05,26,17,07,21.30
2017,05,26,17,08,21.30
2017,05,26,17,09,21.30
2017,05,26,17,10,21.40
2017,05,26,17,11,21.40
2017,05,26,17,12,21.40
2017,05,26,17,13,21.50
2017,05,26,17,14,21.50
2017,05,26,17,15,21.60
2017,05,26,17,16,21.60
2017,05,26,17,17,21.70
2017,05,26,17,18,21.80
2017,05,26,17,19,21.80